Regional Weather Roundup
Issued by NWS

Home | Current Version | Previous Version | Text Only | Print | Product List | Glossary Off
Versions: 1 2 3 4 5 6 7 8 9 10 11 12 13 14 15 16 17 18 19 20 21 22 23 24 25 26 27 28 29 30 31 32 33 34 35 36 37 38 39 40 41 42 43 44 45 46 47 48 49 50

000
ASUS43 KMPX 201910
RWRMN
WEATHER ROUNDUP FOR MINNESOTA
NATIONAL WEATHER SERVICE TWIN CITIES/CHANHASSEN MN
200 PM CDT SUN APR 20 2014


NOTE: "FAIR" INDICATES FEW OR NO CLOUDS BELOW 12,000 FEET WITH NO
SIGNIFICANT WEATHER AND/OR OBSTRUCTIONS TO VISIBILITY. N/A MEANS
CURRENT SKY AND/OR WEATHER CONDITIONS ARE NOT AVAILABLE.

MNZ060>063-068>070-202000-
   Twin Cities Metro

CITY           SKY/WX    TMP DP  RH WIND       PRES   REMARKS
TWIN CITIES    MOSUNNY   72  43  35 VRB3      29.99F
ST PAUL        SUNNY     72  43  35 S5        29.99F
CRYSTAL        SUNNY     72  37  28 VRB5      29.99F
BLAINE         SUNNY     72  34  25 S6        29.99F
EDEN PRAIRIE   MOSUNNY   72  36  26 VRB3      29.98F
LAKEVILLE      SUNNY     68  52  56 E5        30.00S
SOUTH ST PAUL  MOSUNNY   73  43  34 E5        29.98F
LAKE ELMO      FAIR      72  46  40 NE7       30.00F
$$
MNZ001>005-007-008-013>017-022>024-027-028-202000-
   Northwest Minnesota

CITY           SKY/WX    TMP DP  RH WIND       PRES   REMARKS
BEMIDJI        SUNNY     65  31  28 NW3       29.99F
HALLOCK        CLOUDY    54  41  62 S3        29.98F
ROSEAU         MOSUNNY   54  39  58 S3        30.01F
WARROAD        MOSUNNY   54  39  58 SW6       30.02S
THIEF RVR FALL MOSUNNY   59  37  44 SE3       30.00S
CROOKSTON      MOSUNNY   64  39  39 S8G16     29.99F
FOSSTON        SUNNY     66  34  30 S3        29.99F
DETROIT LAKES  SUNNY     66  32  28 S10       30.01F
MOORHEAD       SUNNY     70  36  28 SE14      29.98F
PARK RAPIDS    SUNNY     67  30  25 MISG      29.99F
$$
MNZ006-009>011-018-025>026-202000-
   North Central Minnesota

CITY           SKY/WX    TMP DP  RH WIND       PRES   REMARKS
BAUDETTE       MOSUNNY   54  36  50 E5        30.01F
FLAG ISLAND    MOSUNNY   39  30  70 SE9       30.01F
INTL FALLS     SUNNY     56  34  43 W7        30.01F
WASKISH        SUNNY     55  34  44 W6        30.02S
BIG FORK       SUNNY     64  34  32 S6        30.01F
LONGVILLE      SUNNY     66  28  24 CALM      30.02S
GRAND RAPIDS   SUNNY     63  28  27 SW7       30.02F
CRANE LAKE     SUNNY     59  41  51 NW6       30.03S
ORR            SUNNY     59  30  33 NW5       30.00S
COOK           SUNNY     61  36  39 CALM      30.02S
$$
MNZ012-019>021-037-202000-
   Northeast Minnesota

CITY           SKY/WX    TMP DP  RH WIND       PRES   REMARKS
DULUTH         SUNNY     62  32  32 W8        30.01F
ELY            SUNNY     57  28  33 NW12      30.02S
HIBBING        SUNNY     64  32  30 VRB6      30.01F
EVELETH        SUNNY     61  32  33 CALM      30.03S
DULUTH HARBOR  SUNNY     43  36  75 CALM      30.03F
TWO HARBORS    SUNNY     57  37  47 CALM      29.99F
SILVER BAY     SUNNY     55  41  58 SE6       29.99F
GRAND MARAIS     N/A     41  34  76 SW8       30.02F
G MARAIS ARPRT SUNNY     57  25  28 W7G16     30.01S
$$
MNZ029>031-032-039>041-046>048-054>057-064-202000-
   West Central Minnesota

CITY           SKY/WX    TMP DP  RH WIND       PRES   REMARKS
FERGUS FALLS   SUNNY     70  28  21 S3G9      29.95F
WHEATON        SUNNY     75  37  25 S9        29.99F
MORRIS         SUNNY     73  36  25 SE7       29.99S
ALEXANDRIA     SUNNY     68  34  28 VRB7      30.01F
ELBOW LAKE     FAIR      70  35  27 S6        29.99F
WADENA         SUNNY     68  36  30 S5        30.00S
GLENWOOD       SUNNY     70  34  26 CALM      30.01F
APPLETON       SUNNY     73  32  21 SE8       29.98F
BENSON         SUNNY     72  36  26 S8        29.99F
ORTONVILLE     SUNNY     72  34  25 SE9       29.98F
MADISON        SUNNY     73  36  25 SE10      29.98F
WILLMAR        FAIR      70  36  28 SE8       30.01F
$$
MNZ033>034-036-042>043-049>051-058-059-202000-
   Central Minnesota

CITY           SKY/WX    TMP DP  RH WIND       PRES   REMARKS
ST CLOUD       SUNNY     70  35  27 CALM      30.00F
SAUK CENTRE    FAIR      68  37  31 S3        30.00F
PAYNESVILLE    SUNNY     67  38  33 CALM      30.01F
AITKIN         SUNNY     70  21  16 CALM      30.00F
PINE RIVER     SUNNY     64  36  34 CALM      30.04F
BRAINERD       SUNNY     72  28  19 CALM      30.01F
STAPLES        SUNNY     68  27  21 NW5       30.00F
LONG PRAIRIE   FAIR      66  37  34 CALM      30.02S
LITTLE FALLS   SUNNY     68  30  24 N3        30.01S
LITCHFIELD     SUNNY     72  39  30 E6        30.01F
BUFFALO        SUNNY     69  41  35 NE3       30.01F
MAPLE LAKE     SUNNY     69  42  36 CALM      30.02S
$$
MNZ037-044-045-052-053-202000-
   East Central Minnesota

CITY           SKY/WX    TMP DP  RH WIND       PRES   REMARKS
PRINCETON        N/A     70  37  30 CALM      30.01F
MORA           SUNNY     64  36  34 CALM      30.03F
CAMBRIDGE      SUNNY     68  46  45 CALM      30.00F
RUSH CITY      SUNNY     64  36  35 CALM      30.02F
MOOSE LAKE     SUNNY     66  36  32 W5        30.00F
HINCKLEY       FAIR      63  39  42 CALM      30.02F
CLOQUET        SUNNY     64  25  22 SW7       30.01F
MCGREGOR       SUNNY     66  32  28 S3        30.02S
$$
MNZ071>073-080-081-089-090-097-098-202000-
   Southwest Minnesota

CITY           SKY/WX    TMP DP  RH WIND       PRES   REMARKS
MONTEVIDEO     SUNNY     73  43  33 S9        29.99F
GRANITE FALLS  SUNNY     71  39  30 NE5       29.99F
CANBY          SUNNY     71  36  28 E9        29.99F
MARSHALL       SUNNY     72  37  28 E9          N/A
REDWOOD FALLS  SUNNY     74  33  22 E12G17    29.98F
OLIVIA         SUNNY     70  37  30 SE7       29.99F
PIPESTONE      SUNNY     73  28  19 SE12      29.97F
WINDOM         SUNNY     73  43  33 E10G18    29.98F
WORTHINGTON    MOSUNNY   72  45  37 SE10      30.00F
JACKSON        SUNNY     72  45  37 E3        29.99S
TRACY          SUNNY     73  33  22 E10       29.99S
SLAYTON        SUNNY     73  27  17 E12       29.99S
$$
MNZ065>067-074>077-082>085-091>093-202000-
   South Central Minnesota

CITY           SKY/WX    TMP DP  RH WIND       PRES   REMARKS
MANKATO        MOSUNNY   68  54  60 S8        30.00S
NEW ULM        SUNNY     72  37  28 NE7       29.98F
ST JAMES       SUNNY     72  50  46 SE6       29.99F
FAIRMONT       SUNNY     70  50  49 E8        30.00F
GLENCOE        SUNNY     72  29  20 N5        29.99F
FARIBAULT      SUNNY     70  52  52 S3        30.01S
OWATONNA       SUNNY     66  54  63 S7        30.01S
WASECA         MOSUNNY   68  54  60 S9        30.03S
ALBERT LEA     PTSUNNY   63  55  77 SW5       30.01F
$$
MNZ078>079-086>088-094>096-202000-
   Southeast Minnesota

CITY           SKY/WX    TMP DP  RH WIND       PRES   REMARKS
ROCHESTER      PTSUNNY   59  55  87 S9        30.04S
RED WING       PTSUNNY   70  52  52 CALM      29.99S
STANTON        MOSUNNY   69  52  54 S3        29.99F
DODGE CENTER   PTSUNNY   64  57  77 S13       30.03S
WINONA           N/A    N/A N/A N/A MISG        N/A
AUSTIN         PTSUNNY   63  55  77 S10       30.02S
PRESTON        CLOUDY    57  55  91 S9        30.03F
$$
ABBREVIATIONS USED IN REMARKS
   TC - TEMPERATURES IN CELSIUS
  WCI - WIND CHILL INDEX
   HX - HEAT INDEX
  VSB - VISIBILITY
$$


USA.gov is the U.S. government's official web portal to all federal, state and local government web resources and services.